Weather in Nahariya

Israel     33°00′46″N   35°06′16″E
temp.,
°C
wind,
m/s
gust,
m/s
humid.,
%
clouds,
%
prec.,
mm/h
press.,
hPa
HPBL,
m
6 may, thu
thu600:00+21s34805 0.0 101261
03:00+21ssw44815 0.0 1011103
06:00+21s44825 0.0 1012164
09:00+21ssw4579100 0.0 1014195
12:00+21sw67815 0.0 1014195
15:00+21sw56805 0.0 1013167
18:00+21wsw22805 0.0 101465
21:00+22s33782 0.0 101436
7 may, fri
fri700:00+21s447729 0.0 101391
03:00+21s45775 0.0 1013172
06:00+20s46763 0.0 1013217
09:00+21ssw56831 0.0 1014267
12:00+21wsw458330 0.0 1014182
15:00+22w34805 0.0 1014223
18:00+22nnw45791 0.0 1013305
21:00+21nne34802 0.0 101499
8 may, sat
sat800:00+21ne227629 0.0 101469
03:00+21n11730 0.0 101342
06:00+21se11740 0.0 101452
09:00+21sse11700 0.0 101555
12:00+21nw44673 0.0 1014105
15:00+22n78735 0.0 1013137
18:00+22n79765 0.0 1012149
21:00+22nne67715 0.0 101281
9 may, sun
sun900:00+22nne5573100 0.0 101269
03:00+24sse56478 0.0 100836
06:00+23se3353100 0.0 100921
09:00+24ese2259100 0.0 101013
12:00+23nnw016593 0.0 101127
15:00+24sse2256100 0.0 100941
18:00+24w3367100 0.0 100822
21:00+23nw1182100 0.0 100911
10 may, mon
mon1000:00+22nnw1182100 0.0 101011
03:00+22s2280100 0.0 100915
06:00+22s2284100 0.0 101013
09:00+22s228191 0.0 101026
12:00+22wnw44804 0.0 101084
15:00+23nnw347593 0.0 1009136
18:00+23n68793 0.0 1008168
21:00+22n79780 0.0 1008161